When you browse on this site, cookies collect data to enhance your experience and personalize the content and advertising you see.
Visit our Privacy Policy to learn more. By continuing to use the site, you agree to this use of cookies and data.
  • en Suisse
  • Liste des pays
  • À 7 jours
  • Température de l'eau
  • Carte météo
  • Widgets météo
  • user-avatar
    Se connecter

    Météo par heure à Canberra

    Ce jour, 20 Octobre, Dimanche

    Heure Température Précipitation Vent Pression Humidité
    00:00 +4°C° 0 mm 1 m/s 711 mmHg 93%
    01:00 +2°C° 0 mm 0 m/s 711 mmHg 93%
    02:00 +2°C° 0 mm 0 m/s 711 mmHg 94%
    03:00 +2°C° 0 mm 0 m/s 711 mmHg 94%
    04:00 +3°C° 0 mm 1 m/s 711 mmHg 95%
    05:00 +4°C° 0 mm 1 m/s 711 mmHg 89%
    06:00 +5°C° 0 mm 0 m/s 712 mmHg 83%
    07:00 +6°C° 0 mm 0 m/s 713 mmHg 77%
    08:00 +10°C° 0 mm 1 m/s 713 mmHg 65%
    09:00 +13°C° 0 mm 1 m/s 713 mmHg 52%
    10:00 +18°C° 0 mm 1 m/s 713 mmHg 38%
    11:00 +17°C° 0 mm 2 m/s 713 mmHg 37%
    12:00 +18°C° 0 mm 2 m/s 713 mmHg 35%
    13:00 +19°C° 0 mm 2 m/s 713 mmHg 34%
    14:00 +19°C° 0 mm 2 m/s 713 mmHg 37%
    15:00 +19°C° 0 mm 3 m/s 713 mmHg 40%
    16:00 +19°C° 0 mm 2 m/s 713 mmHg 42%
    17:00 +17°C° 0 mm 2 m/s 713 mmHg 55%
    18:00 +14°C° 0 mm 2 m/s 714 mmHg 67%
    19:00 +11°C° 0 mm 1 m/s 714 mmHg 80%
    20:00 +10°C° 0 mm 1 m/s 714 mmHg 82%
    21:00 +9°C° 0 mm 1 m/s 715 mmHg 84%
    22:00 +8°C° 0 mm 1 m/s 715 mmHg 87%
    23:00 +8°C° 0 mm 1 m/s 715 mmHg 88%

    Demain, 21 Octobre, Lundi

    Heure Température Précipitation Vent Pression Humidité
    00:00 +7°C° 0 mm 1 m/s 715 mmHg 88%
    01:00 +7°C° 0 mm 1 m/s 715 mmHg 89%
    02:00 +7°C° 0 mm 1 m/s 714 mmHg 89%
    03:00 +7°C° 0 mm 1 m/s 714 mmHg 88%
    04:00 +6°C° 0 mm 1 m/s 714 mmHg 88%
    05:00 +8°C° 0 mm 1 m/s 715 mmHg 81%
    06:00 +10°C° 0 mm 1 m/s 715 mmHg 74%
    07:00 +12°C° 0 mm 1 m/s 716 mmHg 67%
    08:00 +15°C° 0 mm 1 m/s 716 mmHg 58%
    09:00 +19°C° 0 mm 1 m/s 716 mmHg 49%
    10:00 +22°C° 0 mm 1 m/s 716 mmHg 40%
    11:00 +23°C° 0 mm 2 m/s 716 mmHg 39%
    12:00 +24°C° 0 mm 2 m/s 716 mmHg 37%
    13:00 +24°C° 0 mm 2 m/s 716 mmHg 35%
    14:00 +24°C° 0 mm 3 m/s 715 mmHg 39%
    15:00 +24°C° 0 mm 3 m/s 715 mmHg 42%
    16:00 +22°C° 0 mm 3 m/s 715 mmHg 46%
    17:00 +19°C° 0 mm 3 m/s 715 mmHg 57%
    18:00 +17°C° 0 mm 2 m/s 715 mmHg 68%
    19:00 +14°C° 0 mm 1 m/s 715 mmHg 79%
    20:00 +13°C° 0 mm 1 m/s 715 mmHg 83%
    21:00 +12°C° 0 mm 1 m/s 715 mmHg 87%
    22:00 +11°C° 0 mm 1 m/s 715 mmHg 92%
    23:00 +10°C° 0 mm 1 m/s 715 mmHg 92%

    Après-demain, 22 Octobre, Mardi

    Heure Température Précipitation Vent Pression Humidité
    00:00 +10°C° 0 mm 1 m/s 715 mmHg 93%
    01:00 +9°C° 0 mm 1 m/s 714 mmHg 93%
    02:00 +8°C° 0 mm 0 m/s 714 mmHg 93%
    03:00 +8°C° 0 mm 0 m/s 714 mmHg 93%
    04:00 +8°C° 0 mm 0 m/s 714 mmHg 93%
    05:00 +9°C° 0 mm 0 m/s 714 mmHg 88%
    06:00 +11°C° 0 mm 0 m/s 715 mmHg 83%
    07:00 +13°C° 0 mm 0 m/s 715 mmHg 79%
    08:00 +16°C° 0 mm 1 m/s 715 mmHg 67%
    09:00 +19°C° 0 mm 2 m/s 715 mmHg 55%
    10:00 +22°C° 0 mm 3 m/s 716 mmHg 43%
    11:00 +24°C° 0 mm 3 m/s 715 mmHg 40%
    12:00 +25°C° 0 mm 3 m/s 715 mmHg 37%
    13:00 +26°C° 0 mm 4 m/s 715 mmHg 33%
    14:00 +26°C° 0 mm 4 m/s 714 mmHg 35%
    15:00 +25°C° 0 mm 4 m/s 714 mmHg 37%
    16:00 +25°C° 0 mm 4 m/s 714 mmHg 39%
    17:00 +21°C° 0 mm 3 m/s 714 mmHg 51%
    18:00 +18°C° 0 mm 2 m/s 714 mmHg 63%
    19:00 +15°C° 0 mm 1 m/s 714 mmHg 75%
    20:00 +14°C° 0 mm 1 m/s 714 mmHg 81%
    21:00 +13°C° 0 mm 1 m/s 714 mmHg 88%
    22:00 +11°C° 0 mm 1 m/s 714 mmHg 94%
    23:00 +11°C° 0 mm 1 m/s 714 mmHg 95%

    23 Octobre, Mercredi

    Heure Température Précipitation Vent Pression Humidité
    00:00 +11°C° 0 mm 1 m/s 713 mmHg 95%
    01:00 +10°C° 0 mm 1 m/s 713 mmHg 96%
    02:00 +9°C° 0 mm 0 m/s 713 mmHg 95%
    03:00 +9°C° 0 mm 0 m/s 713 mmHg 94%
    04:00 +8°C° 0 mm 0 m/s 712 mmHg 94%
    05:00 +10°C° 0 mm 0 m/s 713 mmHg 89%
    06:00 +12°C° 0 mm 0 m/s 713 mmHg 84%
    07:00 +13°C° 0 mm 0 m/s 713 mmHg 79%
    08:00 +18°C° 0 mm 1 m/s 713 mmHg 66%
    09:00 +20°C° 0 mm 2 m/s 713 mmHg 52%
    10:00 +24°C° 0 mm 3 m/s 714 mmHg 39%
    11:00 +25°C° 0 mm 4 m/s 713 mmHg 36%
    12:00 +26°C° 0 mm 4 m/s 713 mmHg 34%
    13:00 +27°C° 0 mm 5 m/s 712 mmHg 31%
    14:00 +27°C° 0 mm 5 m/s 712 mmHg 32%
    15:00 +26°C° 0 mm 4 m/s 711 mmHg 33%
    16:00 +26°C° 0 mm 4 m/s 711 mmHg 33%
    17:00 +22°C° 0 mm 4 m/s 711 mmHg 40%
    18:00 +20°C° 0 mm 3 m/s 711 mmHg 46%
    19:00 +17°C° 0 mm 2 m/s 711 mmHg 53%
    20:00 +16°C° 0 mm 2 m/s 711 mmHg 57%
    21:00 +14°C° 0 mm 1 m/s 711 mmHg 61%
    22:00 +13°C° 0 mm 1 m/s 711 mmHg 66%
    23:00 +12°C° 0 mm 1 m/s 711 mmHg 68%

    24 Octobre, Jeudi

    Heure Température Précipitation Vent Pression Humidité
    00:00 +12°C° 0 mm 1 m/s 710 mmHg 70%
    01:00 +10°C° 0 mm 0 m/s 710 mmHg 73%
    02:00 +10°C° 0 mm 0 m/s 710 mmHg 73%
    03:00 +9°C° 0 mm 0 m/s 710 mmHg 74%
    04:00 +9°C° 0 mm 0 m/s 710 mmHg 75%
    05:00 +11°C° 0 mm 0 m/s 710 mmHg 69%
    06:00 +13°C° 0 mm 0 m/s 710 mmHg 64%
    07:00 +15°C° 0 mm 0 m/s 711 mmHg 58%
    08:00 +20°C° 0 mm 1 m/s 711 mmHg 49%
    09:00 +23°C° 0 mm 2 m/s 711 mmHg 40%
    10:00 +25°C° 0 mm 3 m/s 712 mmHg 31%
    11:00 +26°C° 0 mm 3 m/s 711 mmHg 29%
    12:00 +27°C° 0 mm 4 m/s 711 mmHg 26%
    13:00 +29°C° 0 mm 4 m/s 711 mmHg 24%
    14:00 +28°C° 0 mm 4 m/s 710 mmHg 25%
    15:00 +28°C° 0 mm 4 m/s 710 mmHg 25%
    16:00 +28°C° 0 mm 4 m/s 709 mmHg 26%
    17:00 +25°C° 0 mm 3 m/s 709 mmHg 34%
    18:00 +21°C° 0 mm 2 m/s 709 mmHg 41%
    19:00 +19°C° 0 mm 1 m/s 709 mmHg 49%
    20:00 +18°C° 0 mm 1 m/s 709 mmHg 51%
    21:00 +16°C° 0 mm 1 m/s 709 mmHg 53%
    22:00 +14°C° 0 mm 0 m/s 708 mmHg 55%
    23:00 +14°C° 0 mm 0 m/s 708 mmHg 58%

    25 Octobre, Vendredi

    Heure Température Précipitation Vent Pression Humidité
    00:00 +13°C° 0 mm 0 m/s 707 mmHg 61%
    01:00 +12°C° 0 mm 0 m/s 707 mmHg 63%
    02:00 +12°C° 0 mm 0 m/s 706 mmHg 64%
    03:00 +12°C° 0 mm 0 m/s 706 mmHg 65%
    04:00 +11°C° 0 mm 0 m/s 706 mmHg 67%
    05:00 +14°C° 0 mm 1 m/s 706 mmHg 61%
    06:00 +16°C° 0 mm 2 m/s 706 mmHg 56%
    07:00 +18°C° 0 mm 2 m/s 706 mmHg 51%
    08:00 +20°C° 0 mm 4 m/s 706 mmHg 45%
    09:00 +23°C° 0 mm 6 m/s 706 mmHg 39%
    10:00 +27°C° 0 mm 8 m/s 706 mmHg 34%
    11:00 +28°C° 0 mm 9 m/s 705 mmHg 31%
    12:00 +29°C° 0 mm 9 m/s 705 mmHg 28%
    13:00 +31°C° 0 mm 9 m/s 704 mmHg 26%
    14:00 +29°C° 0 mm 9 m/s 703 mmHg 29%
    15:00 +28°C° 0 mm 8 m/s 703 mmHg 31%
    16:00 +27°C° 0 mm 7 m/s 702 mmHg 34%
    17:00 +26°C° 0.1 mm 7 m/s 702 mmHg 37%
    18:00 +24°C° 0.1 mm 7 m/s 702 mmHg 39%
    19:00 +23°C° 0.1 mm 6 m/s 702 mmHg 42%
    20:00 +21°C° 0.1 mm 6 m/s 702 mmHg 53%
    21:00 +19°C° 0.1 mm 5 m/s 702 mmHg 64%
    22:00 +17°C° 0.1 mm 4 m/s 702 mmHg 76%
    23:00 +15°C° 0 mm 4 m/s 701 mmHg 78%
    Voir plus